CDT,Max TemperatureF,Mean TemperatureF,Min TemperatureF,Max Dew PointF,MeanDew PointF,Min DewpointF,Max Humidity, Mean Humidity, Min Humidity, Max Sea Level PressureIn, Mean Sea Level PressureIn, Min Sea Level PressureIn, Max VisibilityMiles, Mean VisibilityMiles, Min VisibilityMiles, Max Wind SpeedMPH, Mean Wind SpeedMPH, Max Gust SpeedMPH,PrecipitationIn, CloudCover, Events, WindDirDegrees
2012-9-1,93,78,62,66,61,57,88,60,34,30.08,30.02,29.95,10,10,4,9,2,,0.00,0,,98
2012-9-2,96,79,62,66,62,57,88,56,30,29.99,29.93,29.84,10,10,4,14,7,20,0.00,0,,157
2012-9-3,89,79,68,68,64,61,88,63,38,29.96,29.91,29.86,10,10,3,16,6,23,0.01,0,,113
2012-9-4,100,81,62,70,61,54,94,57,21,29.90,29.83,29.70,10,8,2,20,4,29,0.00,0,,157
2012-9-5,84,70,53,55,49,39,77,48,23,29.99,29.90,29.75,10,10,9,20,8,25,0.00,0,,320
2012-9-6,91,68,46,61,49,39,82,50,25,30.02,29.90,29.76,10,10,10,18,5,26,0.00,0,,171
2012-9-7,75,64,53,59,47,39,77,52,29,30.17,30.02,29.80,10,10,10,25,12,33,0.00,2,,335
2012-9-8,86,64,42,45,39,34,81,46,15,30.21,30.12,30.00,10,10,10,20,7,29,0.00,0,,299
2012-9-9,77,60,42,43,39,34,71,46,27,30.28,30.18,30.11,10,10,9,9,6,,0.00,0,,34
2012-9-10,89,72,55,48,46,41,67,43,22,30.12,29.99,29.86,10,10,10,24,12,33,0.00,0,,173
2012-9-11,96,79,62,48,46,43,52,33,19,29.89,29.85,29.80,10,10,10,23,14,31,0.00,0,,176
2012-9-12,77,65,53,54,44,34,88,54,25,30.32,30.10,29.87,10,10,8,31,13,41,0.22,3,,23
2012-9-13,71,61,51,52,47,39,88,65,31,30.44,30.38,30.32,10,9,3,12,4,,0.01,1,,211
2012-9-14,82,65,48,45,41,34,82,52,19,30.38,30.35,30.28,10,10,10,16,8,23,0.00,0,,231
2012-9-15,,,,,,,,,,,,,,,,,,,0.00,,,-1
2012-9-16,,,,,,,,,,,,,,,,,,,0.00,,,-1
2012-9-17,69,58,46,46,38,32,72,45,27,30.10,30.05,30.02,10,10,10,20,13,26,0.00,1,,346
2012-9-18,73,55,37,41,36,30,81,50,25,30.13,30.04,29.91,10,10,10,13,5,18,0.00,1,,199
2012-9-19,91,70,48,48,39,30,82,42,15,30.03,29.89,29.82,10,10,10,28,9,34,0.00,0,,271
2012-9-20,75,58,42,39,33,28,71,43,20,30.10,30.02,29.94,10,10,10,12,4,,0.00,0,,269
2012-9-21,75,62,48,39,35,28,58,39,18,29.98,29.92,29.85,10,10,10,28,9,33,0.00,0,,295
2012-9-22,64,50,37,36,24,18,58,36,18,30.32,30.23,29.99,10,10,10,17,8,17,0.00,0,,344
2012-9-23,71,52,32,32,27,19,70,40,20,30.36,30.27,30.19,10,10,10,12,3,17,0.00,0,,144
2012-9-24,73,58,42,45,38,30,67,47,31,30.18,30.00,29.86,10,10,5,12,4,,0.00,0,,159
2012-9-25,84,64,44,50,42,36,82,53,21,29.92,29.87,29.83,10,10,8,7,2,,0.00,0,,314
2012-9-26,78,63,48,36,32,23,54,35,18,30.17,30.07,29.92,10,10,6,13,6,21,0.00,0,,51
2012-9-27,78,58,37,34,29,21,65,38,17,30.24,30.18,30.13,10,8,1,8,2,,0.00,0,,90
2012-9-28,78,56,35,36,30,27,75,43,17,30.21,30.16,30.11,10,8,1,9,2,,0.00,0,,109
2012-9-29,78,58,37,45,35,25,76,46,22,30.19,30.13,30.05,10,10,9,10,2,,0.00,0,,175
2012-9-30,80,61,42,45,37,32,76,49,21,30.07,29.99,29.93,10,9,3,9,1,,0.00,0,,202